Regional Weather Roundup
Issued by NWS Northern Indiana

Home | Current Version | Previous Version | Graphics & Text | Print | Product List | Glossary On
Versions: 1 2 3 4 5 6 7 8 9 10 11 12 13 14 15 16 17 18 19 20 21 22 23 24 25 26 27 28 29 30 31 32 33 34 35 36 37 38 39 40 41 42 43 44 45 46 47 48 49 50
000
ASUS43 KIWX 291500
RWRIWX

KIWX WEATHER ROUNDUP
NATIONAL WEATHER SERVICE NORTHERN INDIANA
1100 AM EDT THU SEP 29 2016

NOTE: "FAIR" INDICATES FEW OR NO CLOUDS BELOW 12,000 FEET WITH NO
SIGNIFICANT WEATHER AND/OR OBSTRUCTIONS TO VISIBILITY.

* THESE STATIONS ARE NOT UNDER NWS QUALITY CONTROL. THEY ALSO MAY NOT
  REPORT WEATHER SUCH AS PRECIPITATION OR FOG.

INZ001>027-291600-
NORTHERN INDIANA

CITY           SKY/WX    TMP DP  RH WIND       PRES   REMARKS
GARY*          CLOUDY    63  61  94 NE15G36   30.15R
SOUTH BEND     CLOUDY    60  58  92 NE10      30.12S
GOSHEN         CLOUDY    61  57  87 NE6       30.11R
ANGOLA*          N/A     61  48  63 NE5       30.11R
FORT WAYNE     CLOUDY    60  55  83 E8        30.11R

$$
INZ028>050-291600-
CENTRAL INDIANA

CITY           SKY/WX    TMP DP  RH WIND       PRES   REMARKS
LAFAYETTE      CLOUDY    59  56  89 NE9       30.10R
KOKOMO*        CLOUDY    59  54  82 E10       30.10R
MUNCIE*        PTSUNNY   61  55  81 NE6       30.09R
INDIANAPOLIS   PTSUNNY   59  52  77 NE7       30.08R

$$
MIZ043>046-050>051-056>058-064>065-071>073-077>080-291600-
SOUTHWEST LOWER MICHIGAN

CITY           SKY/WX    TMP DP  RH WIND       PRES   REMARKS
BATTLE CREEK   CLOUDY    61  59  93 NE13      30.15R
BENTON HARBOR  LGT RAIN  60  57  89 NE7       30.14R
COLDWATER*     CLOUDY    61  59  93 NE12      30.13R
HILLSDALE*     CLOUDY    61  57  88 NE7       30.12R
HOLLAND        RAIN      61  57  87 NE9G17    30.18R
GRAND RAPIDS   RAIN      60  57  89 NE16      30.20R FOG
KALAMAZOO      CLOUDY    60  57  89 NE6       30.15R
STURGIS*       CLOUDY    62  58  87 NE9       30.11R
THREE RIVERS*  CLOUDY    61  59  91 NE9       30.13R

$$
OHZ001>008-015>018-024>025-291600-
NORTHWEST OHIO

CITY           SKY/WX    TMP DP  RH WIND       PRES   REMARKS
DEFIANCE       MOSUNNY   63  55  75 E6        30.12R
FINDLAY        CLOUDY    61  55  81 E9        30.11R
TOLEDO EXPRESS PTSUNNY   57  56  96 NE3       30.13R
TOLEDO METCALF CLOUDY    59  57  93 SE5       30.14R
LIMA           PTSUNNY   62  56  80 E7        30.10R

$$
AND FOR LAKE MICHIGAN COASTAL AND OPEN LAKE BUOY OBSERVATIONS

STATION/POSITION TEMP    WIND        PRES    VSBY  WAVE
                 AIR SEA DIR/SP/G                  HT/PER
                 (F)     (DEG/KT/KT) (MB)    (MI)  (FT/S)
CALUMET HARBOR    62      40/ 19/ 25 1020.1R
MICHIGAN CITY     60      20/ 19/ 20   N/A
BURNS HARBOR      62      50/ 23/ 25 1020.3R
SAINT JOSEPH      59      30/  5/  9 1021.3R
SOUTH LAKE BUOY   64 69   60/ 25/ 29 1020.9          7/ 7
4 MI NW BRIDGMAN  60 64   20/ 14/ 17 1020.5R         5/ 7
MICHIGAN CITY     61 65   40/ 17/ 23   N/A           7/ 7

$$
&&




USA.gov is the U.S. government's official web portal to all federal, state and local government web resources and services.